TimePDT,TemperatureF,Dew PointF,Humidity,Sea Level PressureIn,VisibilityMPH,Wind Direction,Wind SpeedMPH,Gust SpeedMPH,PrecipitationIn,Events,Conditions,WindDirDegrees,DateUTC
12:53 AM,73.0,57.0,57,29.71,10.0,NW,8.1,-,N/A,,Clear,320,2013-09-15 07:53:00
1:53 AM,71.1,55.9,59,29.72,10.0,NNW,10.4,-,N/A,,Clear,330,2013-09-15 08:53:00
2:53 AM,70.0,55.0,59,29.71,10.0,NW,6.9,-,N/A,,Clear,310,2013-09-15 09:53:00
3:53 AM,68.0,55.0,63,29.73,10.0,WNW,6.9,-,N/A,,Clear,300,2013-09-15 10:53:00
4:53 AM,66.9,52.0,59,29.73,10.0,WNW,6.9,-,N/A,,Clear,300,2013-09-15 11:53:00
5:53 AM,64.9,52.0,63,29.74,10.0,North,3.5,-,N/A,,Clear,350,2013-09-15 12:53:00
6:53 AM,64.0,51.1,63,29.76,10.0,NW,4.6,-,N/A,,Clear,310,2013-09-15 13:53:00
7:53 AM,66.0,50.0,56,29.77,10.0,Calm,Calm,-,N/A,,Clear,0,2013-09-15 14:53:00
8:53 AM,71.1,51.1,49,29.80,10.0,NW,4.6,-,N/A,,Clear,320,2013-09-15 15:53:00
9:53 AM,75.0,48.0,38,29.80,10.0,WNW,6.9,-,N/A,,Clear,300,2013-09-15 16:53:00
10:53 AM,80.1,46.9,31,29.80,10.0,NW,9.2,-,N/A,,Clear,320,2013-09-15 17:53:00
11:53 AM,84.9,48.0,28,29.80,9.0,NW,9.2,-,N/A,,Clear,320,2013-09-15 18:53:00
12:53 PM,88.0,48.9,26,29.78,10.0,WNW,9.2,-,N/A,,Clear,300,2013-09-15 19:53:00
1:53 PM,91.0,48.9,23,29.76,10.0,NNW,8.1,-,N/A,,Clear,330,2013-09-15 20:53:00
2:53 PM,93.0,46.0,20,29.74,10.0,NW,13.8,17.3,N/A,,Clear,320,2013-09-15 21:53:00
3:53 PM,93.9,46.9,20,29.73,10.0,NNW,12.7,19.6,N/A,,Partly Cloudy,330,2013-09-15 22:53:00
4:53 PM,93.0,48.9,22,29.71,10.0,NNW,12.7,-,N/A,,Clear,330,2013-09-15 23:53:00
5:53 PM,91.9,46.9,21,29.71,10.0,NNW,12.7,-,N/A,,Partly Cloudy,330,2013-09-16 00:53:00
6:53 PM,88.0,46.0,23,29.72,10.0,NW,11.5,-,N/A,,Clear,310,2013-09-16 01:53:00
7:53 PM,84.0,48.0,28,29.74,10.0,WNW,10.4,-,N/A,,Clear,300,2013-09-16 02:53:00
8:53 PM,80.1,48.9,34,29.77,10.0,NW,9.2,-,N/A,,Clear,310,2013-09-16 03:53:00
9:53 PM,77.0,50.0,39,29.78,10.0,NNW,9.2,-,N/A,,Clear,330,2013-09-16 04:53:00
10:53 PM,75.0,51.1,43,29.79,10.0,NW,9.2,-,N/A,,Clear,320,2013-09-16 05:53:00
11:53 PM,73.0,53.1,49,29.80,10.0,NW,10.4,-,N/A,,Clear,320,2013-09-16 06:53:00